DW5858 Weather Reports


time (UTC)temp
C
wind
direction
speed
KPH
gust
KPH
rain 1hr
cm
rain 24hr
cm
rain mn
cm
humidity
%
barometer
mb
20260906182503 31 76 1.6 6.4 0.00 0.00 0.00 67 1016.5
20260906182004 31 76 3.2 8.0 0.00 0.00 0.00 69 1016.5
20260906181505 31 76 1.6 8.0 0.00 0.00 0.00 67 1016.5
20260906181004 30 74 1.6 8.0 0.00 0.00 0.00 68 1016.6
20260906180006 30 76 3.2 8.0 0.00 0.00 0.00 70 1016.7
20260906175504 30 76 1.6 8.0 0.00 0.00 0.00 70 1016.7
20260906174504 30 77 1.6 6.4 0.00 0.00 0.00 73 1016.7
20260906174004 30 78 1.6 6.4 0.00 0.00 0.00 73 1016.7
20260906172504 28 76 1.6 6.4 0.00 0.00 0.00 76 1017.1
20260906172003 28 75 0.0 6.4 0.00 0.00 0.00 75 1017.0
20260906171504 28 74 0.0 4.8 0.00 0.00 0.00 76 1017.2
20260906170504 28 76 0.0 4.8 0.00 0.00 0.00 77 1017.1
20260906164505 27 77 0.0 1.6 0.00 0.00 0.00 79 1017.2
20260906164005 27 77 0.0 1.6 0.00 0.00 0.00 79 1017.1
20260906163504 27 77 0.0 1.6 0.00 0.00 0.00 79 1017.2
20260906162504 27 76 1.6 3.2 0.00 0.00 0.00 79 1017.4
20260906161505 27 77 1.6 4.8 0.00 0.00 0.00 80 1017.5
20260906161003 27 76 1.6 4.8 0.00 0.00 0.00 81 1017.6
20260906152504 26 76 1.6 4.8 0.00 0.00 0.00 81 1017.8
20260906152004 26 76 3.2 6.4 0.00 0.00 0.00 82 1018.0
20260906151505 26 76 4.8 8.0 0.00 0.00 0.00 82 1018.0
20260906145003 26 77 0.0 3.2 0.00 0.00 0.00 83 1017.2
20260906144003 26 76 1.6 12.9 0.00 0.00 0.00 83 1017.0
20260906140503 26 76 1.6 4.8 0.00 0.00 0.00 83 1017.0
20260906135504 26 76 1.6 4.8 0.00 0.00 0.00 83 1017.1
20260906134504 26 76 1.6 4.8 0.00 0.00 0.00 83 1017.0
20260906132504 26 76 1.6 12.9 0.00 0.00 0.00 84 1017.1
20260906131505 26 76 1.6 9.7 0.00 0.00 0.00 84 1017.1
20260906131003 26 76 1.6 9.7 0.00 0.00 0.00 84 1017.2
20260906130504 26 76 1.6 9.7 0.00 0.00 0.00 84 1017.1
20260906130005 26 76 1.6 6.4 0.00 0.00 0.00 84 1017.1
20260906125504 26 76 1.6 6.4 0.00 0.00 0.00 85 1017.0
20260906125004 25 76 1.6 6.4 0.00 0.00 0.00 85 1017.1
20260906123504 25 76 1.6 6.4 0.00 0.00 0.00 85 1016.9
20260906123005 25 76 1.6 4.8 0.00 0.00 0.00 85 1016.8
20260906121004 25 76 1.6 6.4 0.00 0.00 0.00 85 1016.7
20260906120504 25 77 0.0 4.8 0.00 0.00 0.00 85 1016.6
20260906120005 25 77 0.0 6.4 0.00 0.00 0.00 85 1016.5
20260906115504 25 76 0.0 6.4 0.00 0.00 0.00 86 1016.4
20260906115004 25 77 0.0 6.4 0.00 0.00 0.00 86 1016.4
20260906113005 25 77 0.0 3.2 0.00 0.00 0.00 86 1016.2
20260906111505 25 77 0.0 4.8 0.00 0.00 0.00 86 1016.2
20260906111003 25 77 0.0 4.8 0.00 0.00 0.00 87 1016.2
20260906110005 25 77 0.0 1.6 0.00 0.00 0.00 86 1016.2
20260906104505 25 77 0.0 1.6 0.00 0.00 0.00 85 1016.2
20260906104004 25 77 0.0 1.6 0.00 0.00 0.00 85 1016.2
20260906103005 25 77 0.0 1.6 0.00 0.00 0.00 86 1016.1
20260906102004 25 77 0.0 3.2 0.00 0.00 0.00 86 1016.0
20260906101004 25 77 0.0 4.8 0.00 0.00 0.00 86 1015.9
20260906100504 25 77 0.0 4.8 0.00 0.00 0.00 86 1015.8
20260906094003 25 0 0.0 0.0 0.00 0.00 0.00 84 1015.8
20260906093006 25 0 0.0 0.0 0.00 0.00 0.00 83 1015.9
20260906092005 25 77 0.0 1.6 0.00 0.00 0.00 83 1015.8
20260906091505 26 77 0.0 3.2 0.00 0.00 0.00 82 1015.9
20260906090503 26 77 0.0 1.6 0.00 0.00 0.00 82 1016.0
20260906090004 26 77 0.0 3.2 0.00 0.00 0.00 82 1016.0
20260906085503 26 77 0.0 3.2 0.00 0.00 0.00 82 1016.1
20260906084003 26 77 0.0 1.6 0.00 0.00 0.00 82 1016.0
20260906082503 26 76 0.0 3.2 0.00 0.00 0.00 82 1015.8
20260906082004 26 77 0.0 3.2 0.00 0.00 0.00 82 1015.8
20260906081505 26 77 0.0 1.6 0.00 0.00 0.00 82 1015.7
20260906081003 26 77 0.0 1.6 0.00 0.00 0.00 82 1015.8
20260906080503 26 77 0.0 1.6 0.00 0.00 0.00 82 1015.8
20260906074505 27 77 0.0 3.2 0.00 0.00 0.00 81 1015.7
20260906073504 27 77 0.0 1.6 0.00 0.00 0.00 81 1015.6
20260906072504 27 76 1.6 6.4 0.00 0.00 0.00 81 1015.6
20260906072003 27 76 0.0 6.4 0.00 0.00 0.00 80 1015.5
20260906071004 27 77 0.0 4.8 0.00 0.00 0.00 80 1015.6
20260906070503 27 77 0.0 4.8 0.00 0.00 0.00 80 1015.6
20260906064505 27 77 0.0 6.4 0.00 0.00 0.00 80 1015.7
20260906064004 27 77 0.0 4.8 0.00 0.00 0.00 81 1015.7
20260906063504 27 77 0.0 3.2 0.00 0.00 0.00 81 1015.7
20260906063004 27 77 0.0 3.2 0.00 0.00 0.00 81 1015.8
20260906053503 27 76 1.6 8.0 0.00 0.00 0.00 81 1015.8
20260906052503 27 77 1.6 8.0 0.00 0.00 0.00 81 1015.9
20260906051004 27 76 1.6 6.4 0.00 0.00 0.00 81 1016.0
20260906050504 27 76 1.6 6.4 0.00 0.00 0.00 82 1016.0
20260906043504 27 76 0.0 3.2 0.00 0.00 0.00 82 1015.8
20260906042504 27 77 0.0 3.2 0.00 0.00 0.00 82 1016.1
20260906041505 27 77 0.0 1.6 0.00 0.00 0.00 82 1016.1
20260906041005 27 77 0.0 1.6 0.00 0.00 0.00 81 1016.2
20260906040504 27 77 0.0 1.6 0.00 0.00 0.00 81 1016.2
20260906035503 27 77 0.0 1.6 0.00 0.00 0.00 81 1016.2
20260906034505 27 77 0.0 1.6 0.00 0.00 0.00 81 1016.2
20260906033504 27 77 0.0 1.6 0.00 0.00 0.00 80 1016.1
20260906033005 27 77 0.0 1.6 0.00 0.00 0.00 80 1016.1
20260906032503 27 77 0.0 1.6 0.00 0.00 0.00 80 1016.1
20260906031505 27 77 0.0 1.6 0.00 0.00 0.00 79 1016.1
20260906031003 27 77 0.0 1.6 0.00 0.00 0.00 79 1016.0
20260906030504 28 77 0.0 1.6 0.00 0.00 0.00 79 1016.0
20260906025004 28 77 0.0 1.6 0.00 0.00 0.00 79 1015.5
20260906024004 28 77 0.0 4.8 0.00 0.00 0.00 78 1015.4
20260906022003 28 77 0.0 1.6 0.00 0.00 0.00 77 1015.1
20260906021505 28 0 0.0 0.0 0.00 0.00 0.00 77 1015.1
20260906021004 28 0 0.0 0.0 0.00 0.00 0.00 76 1015.0
20260906015503 28 76 0.0 1.6 0.00 0.00 0.00 75 1014.8
20260906013005 30 0 0.0 0.0 0.00 0.00 0.00 73 1014.6
20260906012004 30 77 0.0 4.8 0.00 0.00 0.00 71 1014.5
20260906011505 30 76 1.6 4.8 0.00 0.00 0.00 71 1014.4
20260906010503 30 76 1.6 4.8 0.00 0.00 0.00 70 1014.3
20260906010005 30 76 1.6 4.8 0.00 0.00 0.00 70 1014.3
20260906005004 31 76 1.6 6.4 0.00 0.00 0.00 69 1014.3
20260906003504 31 76 1.6 4.8 0.00 0.00 0.00 68 1014.2
20260906003005 31 76 1.6 4.8 0.00 0.00 0.00 67 1014.1
20260906001506 32 76 1.6 4.8 0.00 0.00 0.00 66 1014.1
20260906001003 32 77 1.6 8.0 0.00 0.00 0.00 66 1014.0
20260906000005 32 76 1.6 6.4 0.00 0.00 0.00 65 1014.0
20260905235004 32 76 3.2 8.0 0.00 0.00 0.00 64 1014.1
20260905234004 32 76 3.2 8.0 0.00 0.00 0.00 63 1013.9
20260905232004 32 76 3.2 8.0 0.00 0.00 0.00 62 1013.8
20260905231505 32 77 3.2 8.0 0.00 0.00 0.00 61 1013.8
20260905230005 33 77 1.6 8.0 0.00 0.00 0.00 62 1013.8
20260905225503 33 76 3.2 8.0 0.00 0.00 0.00 61 1013.8
20260905223504 32 76 3.2 6.4 0.00 0.00 0.00 61 1013.8
20260905223005 32 76 1.6 8.0 0.00 0.00 0.00 60 1013.8
20260905222504 33 76 1.6 8.0 0.00 0.00 0.00 60 1013.8
20260905221004 33 78 1.6 8.0 0.00 0.00 0.00 59 1013.7
20260905213504 33 76 1.6 8.0 0.00 0.00 0.00 58 1013.5
20260905212503 33 76 3.2 14.5 0.00 0.00 0.00 58 1013.5
20260905211504 33 76 3.2 14.5 0.00 0.00 0.00 57 1013.7
20260905210005 33 77 4.8 17.7 0.00 0.00 0.00 57 1014.1
20260905205504 33 77 3.2 12.9 0.00 0.00 0.00 56 1014.1
20260905204505 32 77 3.2 17.7 0.00 0.00 0.00 57 1014.1
20260905195004 32 77 4.8 14.5 0.00 0.00 0.00 57 1015.3
20260905192004 31 79 4.8 12.9 0.00 0.00 0.00 58 1016.4
20260905190504 31 78 4.8 19.3 0.00 0.00 0.00 59 1016.7
20260905190005 31 78 3.2 14.5 0.00 0.00 0.00 58 1016.7